Location: Township of Marena
(38.1747°N, 99.6798°W)
Time: 02:03:21
(UTC+00:00)

Cosmos 1709 Rocket - Pass Details

Date: 26 October 2020
Orbit: 949 x 1001 km, 82.9° (Epoch: 27 November)

Event Time Altitude Azimuth Distance (km) Brightness Sun altitude
Rises 01:42:03 0° 358° (N) 3,724 7.1 -23.2°
Reaches altitude 10° 01:44:40 10° 3° (N) 2,775 6.4 -23.8°
Enters shadow 01:50:36 53° 70° (ENE) 1,217 4.1 -24.9°
